When you browse on this site, cookies collect data to enhance your experience and personalize the content and advertising you see.
Visit our Privacy Policy to learn more. By continuing to use the site, you agree to this use of cookies and data.
  • In Schweiz
  • Länderverzeichnis
  • Für 7 Tage
  • Wassertemperatur
  • Satellitenkarten
  • Wetterkarte
  • Widgets
  • user-avatar
    Anmelden

    Stündliche Wetter Basel

    Heute, 19 Februar, Dienstag

    Zeit Temperatur Niederschläge Wind Luftdruck Luftfeuchtigkeit
    00:00 +7°C° 0 mm 1 m/S 742 mmHg 80%
    01:00 +6°C° 0 mm 2 m/S 742 mmHg 81%
    02:00 +5°C° 0 mm 2 m/S 742 mmHg 82%
    03:00 +5°C° 0 mm 2 m/S 742 mmHg 83%
    04:00 +5°C° 0 mm 2 m/S 742 mmHg 84%
    05:00 +5°C° 0 mm 1 m/S 742 mmHg 84%
    06:00 +5°C° 0 mm 1 m/S 742 mmHg 85%
    07:00 +5°C° 0 mm 1 m/S 742 mmHg 87%
    08:00 +6°C° 0 mm 1 m/S 742 mmHg 85%
    09:00 +7°C° 0 mm 1 m/S 742 mmHg 82%
    10:00 +8°C° 0 mm 1 m/S 742 mmHg 79%
    11:00 +8°C° 0 mm 2 m/S 742 mmHg 76%
    12:00 +10°C° 0 mm 2 m/S 742 mmHg 73%
    13:00 +13°C° 0 mm 2 m/S 742 mmHg 70%
    14:00 +13°C° 0 mm 2 m/S 742 mmHg 70%
    15:00 +13°C° 0 mm 2 m/S 742 mmHg 69%
    16:00 +13°C° 0 mm 2 m/S 742 mmHg 69%
    17:00 +11°C° 0 mm 1 m/S 742 mmHg 75%
    18:00 +10°C° 0 mm 1 m/S 743 mmHg 81%
    19:00 +8°C° 0 mm 0 m/S 743 mmHg 87%
    20:00 +7°C° 0 mm 0 m/S 743 mmHg 88%
    21:00 +8°C° 0 mm 1 m/S 743 mmHg 90%
    22:00 +7°C° 0 mm 1 m/S 744 mmHg 91%
    23:00 +7°C° 0 mm 1 m/S 744 mmHg 91%

    Morgen, 20 Februar, Mittwoch

    Zeit Temperatur Niederschläge Wind Luftdruck Luftfeuchtigkeit
    00:00 +7°C° 0 mm 1 m/S 744 mmHg 92%
    01:00 +6°C° 0 mm 1 m/S 744 mmHg 92%
    02:00 +6°C° 0 mm 1 m/S 744 mmHg 92%
    03:00 +6°C° 0 mm 1 m/S 744 mmHg 92%
    04:00 +6°C° 0 mm 1 m/S 743 mmHg 92%
    05:00 +6°C° 0 mm 1 m/S 744 mmHg 91%
    06:00 +5°C° 0 mm 1 m/S 744 mmHg 91%
    07:00 +5°C° 0 mm 1 m/S 744 mmHg 90%
    08:00 +6°C° 0 mm 1 m/S 744 mmHg 85%
    09:00 +8°C° 0 mm 1 m/S 744 mmHg 79%
    10:00 +9°C° 0 mm 1 m/S 745 mmHg 74%
    11:00 +11°C° 0 mm 1 m/S 745 mmHg 68%
    12:00 +11°C° 0 mm 0 m/S 745 mmHg 62%
    13:00 +13°C° 0 mm 0 m/S 745 mmHg 57%
    14:00 +13°C° 0 mm 0 m/S 745 mmHg 56%
    15:00 +13°C° 0 mm 0 m/S 744 mmHg 56%
    16:00 +13°C° 0 mm 0 m/S 744 mmHg 56%
    17:00 +11°C° 0 mm 0 m/S 745 mmHg 62%
    18:00 +10°C° 0 mm 0 m/S 745 mmHg 68%
    19:00 +8°C° 0 mm 0 m/S 746 mmHg 74%
    20:00 +8°C° 0 mm 0 m/S 746 mmHg 76%
    21:00 +7°C° 0 mm 0 m/S 746 mmHg 78%
    22:00 +7°C° 0 mm 0 m/S 746 mmHg 79%
    23:00 +7°C° 0 mm 1 m/S 746 mmHg 80%

    übermorgen, 21 Februar, Donnerstag

    Zeit Temperatur Niederschläge Wind Luftdruck Luftfeuchtigkeit
    00:00 +7°C° 0 mm 1 m/S 747 mmHg 81%
    01:00 +7°C° 0 mm 1 m/S 747 mmHg 83%
    02:00 +6°C° 0 mm 1 m/S 747 mmHg 83%
    03:00 +6°C° 0 mm 1 m/S 747 mmHg 83%
    04:00 +6°C° 0 mm 1 m/S 747 mmHg 83%
    05:00 +6°C° 0 mm 1 m/S 747 mmHg 83%
    06:00 +5°C° 0 mm 1 m/S 747 mmHg 83%
    07:00 +5°C° 0 mm 1 m/S 747 mmHg 83%
    08:00 +7°C° 0 mm 1 m/S 748 mmHg 77%
    09:00 +8°C° 0 mm 1 m/S 748 mmHg 71%
    10:00 +10°C° 0 mm 1 m/S 748 mmHg 66%
    11:00 +12°C° 0 mm 1 m/S 748 mmHg 61%
    12:00 +12°C° 0 mm 0 m/S 748 mmHg 56%
    13:00 +14°C° 0 mm 0 m/S 748 mmHg 51%
    14:00 +15°C° 0 mm 1 m/S 748 mmHg 52%
    15:00 +15°C° 0 mm 1 m/S 748 mmHg 52%
    16:00 +15°C° 0 mm 1 m/S 748 mmHg 53%
    17:00 +13°C° 0 mm 1 m/S 748 mmHg 60%
    18:00 +12°C° 0 mm 1 m/S 749 mmHg 66%
    19:00 +9°C° 0 mm 0 m/S 749 mmHg 73%
    20:00 +9°C° 0 mm 0 m/S 750 mmHg 76%
    21:00 +8°C° 0 mm 0 m/S 750 mmHg 78%
    22:00 +7°C° 0 mm 0 m/S 751 mmHg 81%
    23:00 +7°C° 0 mm 0 m/S 751 mmHg 82%

    22 Februar, Freitag

    Zeit Temperatur Niederschläge Wind Luftdruck Luftfeuchtigkeit
    00:00 +7°C° 0 mm 0 m/S 751 mmHg 84%
    01:00 +6°C° 0 mm 0 m/S 751 mmHg 85%
    02:00 +6°C° 0 mm 0 m/S 751 mmHg 86%
    03:00 +6°C° 0 mm 0 m/S 751 mmHg 86%
    04:00 +6°C° 0 mm 0 m/S 751 mmHg 87%
    05:00 +5°C° 0 mm 0 m/S 751 mmHg 87%
    06:00 +6°C° 0 mm 1 m/S 752 mmHg 87%
    07:00 +6°C° 0 mm 1 m/S 752 mmHg 88%
    08:00 +7°C° 0 mm 1 m/S 752 mmHg 82%
    09:00 +9°C° 0 mm 1 m/S 752 mmHg 77%
    10:00 +10°C° 0 mm 1 m/S 752 mmHg 71%
    11:00 +12°C° 0 mm 1 m/S 752 mmHg 67%
    12:00 +13°C° 0 mm 1 m/S 751 mmHg 63%
    13:00 +14°C° 0 mm 2 m/S 751 mmHg 59%
    14:00 +15°C° 0 mm 2 m/S 751 mmHg 59%
    15:00 +15°C° 0 mm 2 m/S 751 mmHg 60%
    16:00 +15°C° 0 mm 2 m/S 750 mmHg 60%
    17:00 +13°C° 0 mm 2 m/S 751 mmHg 68%
    18:00 +10°C° 0 mm 2 m/S 751 mmHg 75%
    19:00 +9°C° 0 mm 2 m/S 751 mmHg 83%
    20:00 +8°C° 0 mm 2 m/S 751 mmHg 85%
    21:00 +8°C° 0 mm 2 m/S 751 mmHg 88%
    22:00 +7°C° 0 mm 2 m/S 751 mmHg 90%
    23:00 +7°C° 0 mm 2 m/S 751 mmHg 91%

    23 Februar, Samstag

    Zeit Temperatur Niederschläge Wind Luftdruck Luftfeuchtigkeit
    00:00 +6°C° 0 mm 2 m/S 751 mmHg 91%
    01:00 +6°C° 0 mm 2 m/S 751 mmHg 92%
    02:00 +6°C° 0 mm 2 m/S 751 mmHg 92%
    03:00 +5°C° 0 mm 2 m/S 750 mmHg 92%
    04:00 +5°C° 0 mm 2 m/S 750 mmHg 92%
    05:00 +5°C° 0 mm 2 m/S 750 mmHg 92%
    06:00 +5°C° 0 mm 2 m/S 750 mmHg 91%
    07:00 +5°C° 0 mm 2 m/S 750 mmHg 91%
    08:00 +6°C° 0 mm 2 m/S 750 mmHg 86%
    09:00 +7°C° 0 mm 2 m/S 750 mmHg 80%
    10:00 +8°C° 0 mm 2 m/S 750 mmHg 75%
    11:00 +9°C° 0 mm 2 m/S 750 mmHg 69%
    12:00 +12°C° 0 mm 2 m/S 750 mmHg 62%
    13:00 +14°C° 0 mm 2 m/S 750 mmHg 55%
    14:00 +14°C° 0 mm 2 m/S 749 mmHg 55%
    15:00 +14°C° 0 mm 2 m/S 749 mmHg 55%
    16:00 +15°C° 0 mm 2 m/S 749 mmHg 55%
    17:00 +13°C° 0 mm 2 m/S 749 mmHg 63%
    18:00 +11°C° 0 mm 1 m/S 749 mmHg 71%
    19:00 +9°C° 0 mm 1 m/S 750 mmHg 79%
    20:00 +9°C° 0 mm 1 m/S 750 mmHg 81%
    21:00 +8°C° 0 mm 1 m/S 750 mmHg 83%
    22:00 +7°C° 0 mm 1 m/S 750 mmHg 85%
    23:00 +7°C° 0 mm 1 m/S 750 mmHg 86%

    24 Februar, Sonntag

    Zeit Temperatur Niederschläge Wind Luftdruck Luftfeuchtigkeit
    00:00 +7°C° 0 mm 1 m/S 749 mmHg 86%
    01:00 +6°C° 0 mm 1 m/S 749 mmHg 87%
    02:00 +6°C° 0 mm 1 m/S 749 mmHg 87%
    03:00 +6°C° 0 mm 1 m/S 749 mmHg 87%
    04:00 +5°C° 0 mm 1 m/S 749 mmHg 86%
    05:00 +5°C° 0 mm 1 m/S 749 mmHg 86%
    06:00 +5°C° 0 mm 1 m/S 749 mmHg 85%
    07:00 +5°C° 0 mm 1 m/S 749 mmHg 84%
    08:00 +6°C° 0 mm 1 m/S 749 mmHg 77%
    09:00 +8°C° 0 mm 1 m/S 749 mmHg 69%
    10:00 +8°C° 0 mm 2 m/S 749 mmHg 62%
    11:00 +10°C° 0 mm 2 m/S 749 mmHg 57%
    12:00 +12°C° 0 mm 2 m/S 749 mmHg 52%
    13:00 +13°C° 0 mm 3 m/S 749 mmHg 47%
    14:00 +13°C° 0 mm 3 m/S 749 mmHg 48%
    15:00 +14°C° 0 mm 3 m/S 749 mmHg 49%
    16:00 +14°C° 0 mm 3 m/S 749 mmHg 50%
    17:00 +13°C° 0 mm 2 m/S 749 mmHg 57%
    18:00 +10°C° 0 mm 2 m/S 749 mmHg 64%
    19:00 +9°C° 0 mm 1 m/S 749 mmHg 71%
    20:00 +8°C° 0 mm 1 m/S 750 mmHg 72%
    21:00 +7°C° 0 mm 1 m/S 750 mmHg 73%
    22:00 +7°C° 0 mm 1 m/S 750 mmHg 74%
    23:00 +6°C° 0 mm 1 m/S 750 mmHg 75%
    Mehr zeigen